Simultaneous Nadir Overpasses (SNOs) Predictions

Prediction of SNOs between GOES-16 and NPP Satellite Orbit:

Table of predicted SNOs for the next 14.0 days since TLE Epoch: 11/11/2023
Index Date Time (GOES-16) GOES-16 Lat,Lon NPP Lat,Lon Distance(km) Time Diff (sec)
1 11/12/2023 06:42:53 0.02, -75.21 0.96, -79.51 489.30 80
2 11/13/2023 06:24:08 0.02, -75.22 -0.01, -74.97 27.67 80
3 11/15/2023 18:27:19 -0.02, -75.24 -0.14, -75.75 58.73 80
4 11/16/2023 18:11:15 -0.02, -75.24 0.89, -71.22 458.23 80
5 11/18/2023 06:33:02 0.01, -75.24 0.30, -76.49 142.41 80
6 11/19/2023 06:11:38 0.02, -75.25 -0.74, -71.96 374.69 80
7 11/20/2023 18:33:34 -0.01, -75.27 -0.43, -77.27 227.78 80
8 11/21/2023 18:17:29 -0.01, -75.28 0.55, -72.73 290.05 80
9 11/23/2023 06:39:16 0.01, -75.30 0.63, -78.00 308.73 80
10 11/24/2023 06:17:51 0.01, -75.31 -0.42, -73.48 209.42 80
